EDT,Max TemperatureF,Mean TemperatureF,Min TemperatureF,Max Dew PointF,MeanDew PointF,Min DewpointF,Max Humidity, Mean Humidity, Min Humidity, Max Sea Level PressureIn, Mean Sea Level PressureIn, Min Sea Level PressureIn, Max VisibilityMiles, Mean VisibilityMiles, Min VisibilityMiles, Max Wind SpeedMPH, Mean Wind SpeedMPH, Max Gust SpeedMPH,PrecipitationIn, CloudCover, Events, WindDirDegrees
2013-9-1,81,74,66,68,66,64,93,76,58,29.94,29.83,29.76,10,5,0,13,3,16,2.26,7,Fog-Rain-Thunderstorm,63
2013-9-2,69,66,63,67,63,60,93,90,87,29.97,29.90,29.75,10,6,1,17,9,22,2.08,8,Rain,95
2013-9-3,78,71,64,68,65,63,100,85,69,29.77,29.73,29.67,10,6,0,16,3,21,0.01,7,Fog-Rain,191
2013-9-4,78,70,61,65,59,51,93,68,43,29.88,29.77,29.71,10,7,0,15,4,21,T,5,Fog-Rain,267
2013-9-5,67,56,45,58,46,35,93,64,34,30.12,29.95,29.85,10,10,6,20,4,24,0.14,5,Rain,332
2013-9-6,67,54,41,47,41,37,89,63,37,30.19,30.11,30.02,10,10,10,13,5,17,0.00,2,,234
2013-9-7,74,62,50,58,51,45,89,65,40,30.01,29.89,29.76,10,10,10,15,5,21,T,5,Rain,206
2013-9-8,63,53,43,57,50,36,93,70,46,30.02,29.77,29.68,10,8,1,31,6,38,0.41,5,Rain,293
2013-9-9,67,53,39,49,41,36,83,62,40,30.16,30.10,30.04,10,10,10,15,6,21,0.00,3,,229
2013-9-10,67,59,51,59,55,49,97,85,72,30.09,30.07,30.04,10,10,8,12,5,16,0.00,7,,183
2013-9-11,82,71,60,70,64,57,100,79,58,30.06,29.97,29.86,10,5,0,15,6,23,0.20,6,Fog-Rain,186
2013-9-12,77,71,65,69,66,64,93,84,74,29.96,29.78,29.64,10,5,1,17,8,22,0.39,7,Rain-Thunderstorm,182
2013-9-13,69,64,58,65,62,56,97,88,78,29.70,29.63,29.59,10,4,2,23,5,30,1.17,8,Rain,17
2013-9-14,70,61,52,56,54,50,93,78,63,29.99,29.82,29.69,10,10,10,15,6,18,0.00,7,,314
2013-9-15,68,57,46,51,48,45,93,69,45,30.10,30.04,29.99,10,10,10,15,5,22,0.00,4,Fog,228
2013-9-16,61,51,41,54,47,30,93,73,53,30.24,30.04,29.95,10,10,9,25,7,31,0.04,6,Rain,325
2013-9-17,65,52,38,45,38,32,86,63,40,30.37,30.30,30.26,10,10,10,16,6,22,0.00,0,,306
2013-9-18,71,56,40,48,43,38,96,65,33,30.27,30.17,30.07,10,10,10,13,2,18,0.00,1,,245
2013-9-19,76,59,42,53,48,42,96,66,36,30.10,30.05,29.99,10,10,10,12,2,14,0.00,0,,256
2013-9-20,77,62,47,54,50,46,100,73,46,30.10,30.05,30.01,10,10,10,13,2,16,0.00,2,,167
2013-9-21,69,59,49,58,55,46,100,82,63,30.04,29.92,29.78,10,8,1,24,8,31,0.00,7,,169
2013-9-22,68,61,53,63,59,46,93,83,72,29.76,29.64,29.57,10,9,2,22,13,31,0.42,7,Rain,186
2013-9-23,57,51,45,45,40,38,83,69,55,29.88,29.81,29.72,10,10,10,22,10,29,0.00,6,,301
2013-9-24,53,50,46,43,41,38,86,76,66,29.86,29.82,29.79,10,10,3,20,9,26,0.05,7,Rain,293
2013-9-25,60,54,47,46,44,43,86,71,55,29.96,29.88,29.83,10,10,10,18,8,24,T,7,Rain,331
2013-9-26,64,56,47,49,46,43,93,75,56,30.12,30.03,29.97,10,10,10,18,7,23,0.00,6,,345
2013-9-27,72,60,47,52,49,48,100,72,44,30.25,30.19,30.13,10,10,5,16,7,20,0.00,4,,1
2013-9-28,73,58,42,51,47,42,100,71,41,30.35,30.29,30.25,10,10,2,8,1,12,0.00,0,,147
2013-9-29,70,56,41,48,44,40,100,68,35,30.26,30.19,30.13,10,9,0,14,3,18,0.00,1,Fog,192
2013-9-30,67,54,41,46,43,35,100,67,34,30.14,30.09,29.98,10,4,0,9,2,10,0.00,5,Fog,211